Showing default

GEO-KOMPSAT-2B, 45246

Orbit data source: Space-Track

GEO-KOMPSAT-2B, 45246 is a payload satellite owned by KARI (KR) in GEO that was launched on Tue, 18 Feb 2020 UTC via an ARIANE 5ECA+ launch vehicle from the French Guiana (FRGUI). Payloads include a variety of satellites, spacecraft, and rockets equipped with specific instruments for various scientific and technological missions. These include communications satellites like Starlink; space stations such as the ISS; scientific satellites like the Hubble; Earth observation satellites from companies like Planet Labs, Umbra, and HawkEye 360; GPS; miniature CubeSats for education and research; and military/defense satellites.

Not visible in the next 10 days
GEO-KOMPSAT-2B details
Identifier
45246, 2020-013B
Orbit
GEO
Last TLE update9 hours ago
Origin
Flag of KRKARI (KR / SKOR)
ManufacturerKARI
MissionOperational Civil Weather
Bus & MotorGK2, S400?
Mass3,379 kg wet, ~2,500 kg dry
Launch date (UTC)
2020-02-18 (5 years ago)
Launch vehicle
ARIANE 5ECA+
Launch site
French Guiana (FRGUI)
Object type
Payload
Rocket body
Debris
Shape & HBRBox + 1 Pan, Unknown HBR
Radar Cross Section15.287 m², Large (>1 m²)

Expand to show TLE details & history

TLE from 9 hours ago
0 GEO-KOMPSAT-2B
1 45246U 20013B   24361.26907396 -.00000316  00000-0  00000-0 0  9996
2 45246   0.0421 227.6729 0001985  45.2934  47.4108  1.00270267 17888
Epoch: 2024-12-26T06:27Z
Definitive object data (Epoch: 2024-12-26T06:27:27.99Z)
Latitude0.01879°
Longitude128.26877°
Altitude35,780.823 km
Speed3.075 km/s
True Right ascension21h 21m 32s
True Declination0° 01' 08"
Sunlit
Object was in daylight at TLE epoch
Visualization TLE readout
Latitude0.00469°
Longitude-98.98623°
Altitude35,794.971 km
Speed3.074 km/s
Apparent Right ascension05h 52m 35s
Apparent Declination-5° 08' 04"
Sunlit
Object is in daylight
Visualization observer readout
Local Sidereal Time14:39:03
Azimuth295.539° NW
Elevation-34.385°
Doppler factor1
Orbital elements
Apogee altitude35,796.461 km
Perigee altitude35,779.721 km
Semi-major axis42,166.228 km
Eccentricity0.0001985
Inclination0.0421°
RAAN227.6729°
Arg. of periapsis45.2934°
True anomaly47.42755°
Mean anomaly47.4108°
Eccentric anomaly47.41917°
Mean motion0.25067 °/min
BSTARUnknown
Orbital period1436.17 mins
Loading historical data...
45246 neighbors
Authenticating...
Loading maneuver chart data...
Loading historical data...
Loading historical data...
Loading historical data...
Loading historical data...
Loading historical data...
Loading historical data...
Loading historical data...
Other satellites on launch #13 in the year 2020 (2020-02-18 UTC)

GEO-KOMPSAT-2B Visibility forecast

Observer location: undefined°, undefined

GEO-KOMPSAT-2B is not visible in the next 10 days
Span
Click to sort rows by Start time (UTC) header in descending order
Start Az.
Max El. time (UTC)
Max El. Az.
Max El.
End time (UTC)
End Az.
|